{"data":{"norad_id":61587,"intl_designator":"2024-187P","name":"STARLINK-32353","alt_names":[],"object_type":"PAYLOAD","status":"ACTIVE","operator":null,"country":"US","launch_date":"2024-10-18","launch_site_code":"AFETR","launch_vehicle":null,"mission":null,"orbit_class":"UNKNOWN","rcs_meters":null,"size_class":null,"mass_kg":null,"dimensions":null,"purposes":["comms"],"wikipedia_slug":null,"has_3d_model":false,"image_url":null,"decayed_at":null,"tle_current":{"epoch":"2026-09-21T14:45:52.430688Z","epoch_age_seconds":95748,"freshness":"FRESH","line1":"1 61587U 24187P   26264.61519017  .00007160  00000+0  22285-3 0  9994","line2":"2 61587  53.1605 230.5079 0001310  98.1657 261.9494 15.34399758109083","mean_motion":15.34399758,"eccentricity":0.000131,"inclination_deg":53.1605,"raan_deg":230.5079,"arg_perigee_deg":98.1657,"mean_anomaly_deg":261.9494,"bstar":0.00022285,"rev_number":10908,"period_min":93.847772882665,"perigee_km":461.80780931651,"apogee_km":463.60010964789,"semimajor_km":6840.8409594822,"source":"CELESTRAK","updated_at":"2026-09-22T09:00:49.392848Z"}}}